Le nostre stazioni meteo in Italia

Pubblicità
Il mio iltempo24.it
Rimini, Italia (16149): Temperatura & dewpoint: 18.06.2018 22:00:00 - 24.06.2018 22:00:00 (CEST)Rimini, Italia (16149): velocità del vento: 18.06.2018 22:00:00 - 24.06.2018 22:00:00 (CEST)Rimini, Italia (16149): direzione del vento: 18.06.2018 22:00:00 - 24.06.2018 22:00:00 (CEST)Rimini, Italia (16149): reduced air pressure: 18.06.2018 22:00:00 - 24.06.2018 22:00:00 (CEST)Rimini, Italia (16149): visibility: 18.06.2018 22:00:00 - 24.06.2018 22:00:00 (CEST)
Data & Tempo tt [°C] td [°C] ff [km/h] ff [kn] dd ppp [hPa] vv [km]
24.06.2018 22:00:00 22,0 11,0 11 6 ESE - 10
24.06.2018 21:00:00 23,0 12,0 11 6 E - 10
24.06.2018 20:00:00 23,4 13,3 9 5 ESE 1015,5 10
24.06.2018 19:00:00 24,0 14,0 16 9 E - 10
24.06.2018 18:00:00 24,0 13,0 24 13 E - 10
24.06.2018 17:00:00 24,0 13,6 26 14 E 1016,4 10
24.06.2018 16:00:00 24,0 12,0 22 12 E - 10
24.06.2018 15:00:00 25,0 11,0 22 12 E - 10
24.06.2018 14:00:00 24,0 13,6 22 12 ENE 1017,9 10
24.06.2018 13:00:00 24,0 14,0 16 9 ENE - 10
24.06.2018 12:00:00 24,0 14,0 13 7 NE - 10
24.06.2018 11:00:00 23,3 14,0 9 5 ENE 1018,5 10
24.06.2018 10:00:00 23,0 14,0 5 3 NE - 10
24.06.2018 09:00:00 21,0 14,0 4 2 NNE - 10
24.06.2018 08:00:00 15,0 13,2 0 0 N 1017,8 10
24.06.2018 07:00:00 14,0 12,0 0 0 N - 10
24.06.2018 06:00:00 13,0 11,0 0 0 N - 10
24.06.2018 05:00:00 13,2 10,5 2 1 S 1018,1 10
24.06.2018 04:00:00 13,0 11,0 4 2 S - 10
24.06.2018 03:00:00 13,0 11,0 4 2 S - 10
24.06.2018 02:00:00 14,0 11,7 2 1 S 1018,6 10
24.06.2018 01:00:00 15,0 13,0 5 3 S - 10
24.06.2018 00:00:00 15,0 13,0 5 3 S - 10
23.06.2018 23:00:00 17,0 13,3 8 4 SSO 1018,3 10
23.06.2018 22:00:00 18,0 14,0 8 4 SSO - 10
23.06.2018 21:00:00 21,0 7,0 2 1 ESE - 10
23.06.2018 20:00:00 22,4 8,9 8 4 E 1018,0 10
23.06.2018 19:00:00 23,0 10,0 5 3 E - 10
23.06.2018 18:00:00 23,0 9,0 5 3 ENE - 10
23.06.2018 17:00:00 23,0 10,8 11 6 E 1018,6 10
23.06.2018 16:00:00 23,0 11,0 15 8 ENE - 10
23.06.2018 15:00:00 23,0 12,0 16 9 ENE - 10
23.06.2018 14:00:00 23,4 10,5 16 9 E 1019,7 10
23.06.2018 13:00:00 24,0 11,0 13 7 E - 10
23.06.2018 12:00:00 23,0 9,0 16 9 E - 10
23.06.2018 11:00:00 23,4 10,8 18 10 ENE 1020,1 10
23.06.2018 10:00:00 23,0 11,0 21 11 ENE - 10
23.06.2018 09:00:00 23,0 12,0 21 11 ENE - 10
23.06.2018 08:00:00 18,6 16,2 0 0 N 1019,6 10
23.06.2018 07:00:00 17,0 15,0 2 1 SSO - 10
23.06.2018 06:00:00 16,0 15,0 2 1 SSO - 10
23.06.2018 05:00:00 17,2 15,7 0 0 N 1018,2 10
23.06.2018 04:00:00 18,0 16,0 4 2 SSO - 10
23.06.2018 03:00:00 18,0 17,0 4 2 SSO - 10
23.06.2018 02:00:00 19,2 16,6 4 2 SSO 1017,5 10
23.06.2018 01:00:00 20,0 16,0 8 4 NE - 10
23.06.2018 00:00:00 20,0 16,0 13 7 NE - 10
22.06.2018 23:00:00 19,4 17,2 4 2 S 1016,3 10
22.06.2018 22:00:00 19,0 17,0 0 0 N - 10
22.06.2018 21:00:00 20,0 18,0 2 1 S - 10
22.06.2018 20:00:00 20,0 18,5 5 3 SSE 1014,5 10
22.06.2018 19:00:00 20,0 19,0 15 8 E - 10
22.06.2018 18:00:00 20,0 19,0 21 11 E - 8
22.06.2018 17:00:00 21,0 19,8 26 14 E 1013,5 2,5
22.06.2018 16:00:00 21,0 20,0 21 11 ENE - 10
22.06.2018 15:00:00 21,0 21,0 21 11 E - 10
22.06.2018 14:00:00 25,0 23,8 24 13 N 1012,3 0,9
22.06.2018 13:00:00 25,0 24,0 24 13 E - 10
22.06.2018 12:00:00 26,0 24,0 16 9 ENE - 10
22.06.2018 11:00:00 27,0 20,3 13 7 ENE 1011,7 10
22.06.2018 10:00:00 27,0 21,0 11 6 NNE - 10
22.06.2018 09:00:00 26,0 20,0 5 3 NNE - 10
22.06.2018 08:00:00 22,0 19,6 5 3 S 1010,4 10
22.06.2018 07:00:00 22,0 19,0 4 2 S - 10
22.06.2018 06:00:00 23,0 19,0 0 0 N - 10
22.06.2018 05:00:00 22,8 19,0 8 4 SSE 1010,7 10
22.06.2018 04:00:00 23,0 19,0 5 3 S - 10
22.06.2018 03:00:00 22,0 18,0 5 3 S - 10
22.06.2018 02:00:00 22,4 19,0 4 2 S 1011,7 10
22.06.2018 01:00:00 24,0 20,0 4 2 SO - 10
22.06.2018 00:00:00 25,0 23,0 5 3 S - 10
21.06.2018 23:00:00 26,0 22,1 4 2 S 1012,2 10
21.06.2018 22:00:00 27,0 22,0 4 2 SE - 10
21.06.2018 21:00:00 28,0 22,0 4 2 SE - 10
21.06.2018 20:00:00 28,4 21,9 11 6 ESE 1011,8 10
21.06.2018 19:00:00 29,0 23,0 15 8 E - 10
21.06.2018 18:00:00 29,0 22,0 18 10 E - 10
21.06.2018 17:00:00 28,4 21,9 16 9 E 1013,2 10
21.06.2018 16:00:00 29,0 22,0 21 11 E - 10
21.06.2018 15:00:00 29,0 21,0 18 10 E - 10
21.06.2018 14:00:00 28,8 21,1 16 9 ENE 1015,8 10
21.06.2018 13:00:00 29,0 21,0 13 7 ENE - 10
21.06.2018 12:00:00 28,0 21,0 11 6 NNE - 10
21.06.2018 11:00:00 27,8 20,6 11 6 NE 1016,8 10
21.06.2018 10:00:00 28,0 21,0 9 5 NE - 10
21.06.2018 09:00:00 27,0 20,0 5 3 ENE - 10
21.06.2018 08:00:00 21,0 18,4 0 0 N 1016,9 10
21.06.2018 07:00:00 19,0 18,0 0 0 N - 10
21.06.2018 06:00:00 18,0 18,0 2 1 S - 10
21.06.2018 05:00:00 18,3 18,3 0 0 N 1016,9 10
21.06.2018 04:00:00 19,0 19,0 0 0 N - 10
21.06.2018 03:00:00 19,0 19,0 2 1 SSO - 10
21.06.2018 02:00:00 20,0 19,5 0 0 N 1017,9 10
21.06.2018 01:00:00 20,0 20,0 0 0 N - 10
21.06.2018 00:00:00 21,0 19,0 4 2 S - 10
20.06.2018 23:00:00 23,0 20,0 5 3 SSO 1018,5 10
20.06.2018 22:00:00 24,0 21,0 4 2 S - 10
20.06.2018 21:00:00 26,0 21,0 0 0 N - 10
20.06.2018 20:00:00 28,0 20,8 8 4 E 1018,3 10
20.06.2018 19:00:00 28,0 21,0 8 4 E - 10
20.06.2018 18:00:00 28,0 21,0 9 5 ENE - 10
20.06.2018 17:00:00 28,6 20,6 13 7 NE 1018,7 10
20.06.2018 16:00:00 29,0 22,0 11 6 NE - 10
20.06.2018 15:00:00 29,0 21,0 15 8 NE - 10
20.06.2018 14:00:00 28,6 21,1 13 7 NE 1020,4 10
20.06.2018 13:00:00 29,0 21,0 8 4 N - 10
20.06.2018 12:00:00 28,0 22,0 11 6 N - 10
20.06.2018 11:00:00 27,8 21,6 11 6 N 1019,8 10
20.06.2018 10:00:00 28,0 22,0 8 4 ONO - 10
20.06.2018 09:00:00 27,0 20,0 13 7 ONO - 10
20.06.2018 08:00:00 21,4 18,6 16 9 O 1019,7 10
20.06.2018 07:00:00 21,0 18,0 0 0 N - 10
20.06.2018 06:00:00 19,0 17,0 0 0 N - 10
20.06.2018 05:00:00 18,2 16,5 0 0 N 1019,5 10
20.06.2018 04:00:00 19,0 17,0 0 0 N - 10
20.06.2018 03:00:00 19,0 17,0 0 0 N - 10
20.06.2018 02:00:00 18,6 16,9 5 3 S 1019,5 10
20.06.2018 01:00:00 20,0 17,0 4 2 SSO - 10
20.06.2018 00:00:00 20,0 18,0 5 3 SSO - 10
19.06.2018 23:00:00 22,4 18,0 2 1 SSO 1019,2 10
19.06.2018 22:00:00 22,0 18,0 9 5 S - 10
19.06.2018 21:00:00 26,0 16,0 2 1 O - 10
19.06.2018 20:00:00 28,0 15,0 8 4 N 1018,3 10
19.06.2018 19:00:00 28,0 15,0 9 5 N - 10
19.06.2018 18:00:00 29,0 16,0 9 5 NNE - 10
19.06.2018 17:00:00 29,0 15,9 9 5 NE 1018,6 10
19.06.2018 16:00:00 29,0 17,0 11 6 NE - 10
19.06.2018 15:00:00 29,0 17,0 15 8 NNE - 10
19.06.2018 14:00:00 29,0 15,2 15 8 NE 1019,8 10
19.06.2018 13:00:00 29,0 16,0 15 8 NNE - 10
19.06.2018 12:00:00 29,0 17,0 11 6 NNE - 10
19.06.2018 11:00:00 27,7 20,5 15 8 N 1019,8 10
19.06.2018 10:00:00 27,0 19,0 5 3 NNE - 10
19.06.2018 09:00:00 27,0 20,0 8 4 NNO - 10
19.06.2018 08:00:00 23,8 19,3 9 5 O 1018,4 10
19.06.2018 07:00:00 21,0 20,0 0 0 N - 10
19.06.2018 06:00:00 19,0 18,0 2 1 OSO - 10
19.06.2018 05:00:00 19,4 18,4 4 2 SSO 1017,4 10
19.06.2018 04:00:00 20,0 19,0 5 3 SO - 10
19.06.2018 03:00:00 20,0 19,0 2 1 S - 10
19.06.2018 02:00:00 20,0 18,8 4 2 S 1017,4 10
19.06.2018 01:00:00 21,0 19,0 2 1 SSO - 10
19.06.2018 00:00:00 21,0 19,0 4 2 SSO - 10
18.06.2018 23:00:00 22,2 19,2 2 1 SSO 1016,4 10
18.06.2018 22:00:00 24,0 20,0 8 4 S - 10

tt = Temperatura
td = dewpoint
ff = velocità del vento
dd = direzione del vento
ppp = reduced air pressure
vv = visibility

Stazioni seguenti

WeatherPro
AMSI
MeteoEarth